FENGYUN 1C DEB

Satellite information

Favourite Embed

Satellite Type and Status

DEBRISIN ORBIT

Key statistics

Satellite FENGYUN 1C DEB at a glance.

Uptime

9715

Days in orbit

Revolutions

≈ 14.2

Per day

Orbit

SSO

Sun Synchronous Orbit

Inclination

98.6

Latest

Satellite identification and parameters

Extended collection of information and parameters for FENGYUN 1C DEB.

Object identification

Identified? True

Debris? True

Object name: FENGYUN 1C DEB

International designator: 1999-025EHD

Object number (NORAD): 37435

Object ID (CCSDS): 37435

Country: PEOPLES REPUBLIC OF CHINA (PRC)

Current information (Y/N): Y

RCS size: SMALL

Orbital parameters

Period: 101.242 minutes

Inclination: 98.648 deg

SMA: 7195.587 km

Apoapsis: 846.557 km

Periapsis: 788.347 km

RAAN: 19.7275 deg

Eccentricy: 0.00404486

Argument of periapsis: 24.2253 deg

Mean anomaly: 336.0816 deg

Mean motion: 14.22339891 rev/day

Mean motion (dot): 0.000034 rev/day2

B* drag term: 0.0015347361 1/REarth

Two-line elements (TLE)

Creation date: Dec. 9, 2025, 5:41 p.m.

Reference frame: TEME

Reference center: EARTH

Epoch: Dec. 9, 2025, 8:28 a.m. UTC

TLE line 0: 0 FENGYUN 1C DEB

TLE line 1: 1 37435U 99025EHD 25343.35346685 .00003400 00000-0 15347-2 0 9993

TLE line 2: 2 37435 98.6480 19.7275 0040449 24.2253 336.0816 14.22339891888912

Live tracking on map

Real-time ground track for satellite FENGYUN 1C DEB.

In-orbit conjunctions

A list of the most updated potential collisions computed for object FENGYUN 1C DEB.

Target Orbit TCA Probability of collision Miss distance Type
TIROS N SSO 2025-12-04 08:11:22 0.0001098255 186.0 (m) PAYLOAD
PEGASUS DEB LEO 2024-09-25 22:08:25 0.001062393 158.0 (m) DEBRIS
REX LEO 2024-09-14 16:00:36 0.0001125548 317.0 (m) PAYLOAD

Associated space launch

Chinese polar orbiting meteorological satellite

FENGYUN 1C DEB was lifted into orbit during the mission ‘Long March 4B | Feng Yun 1C’, on board a Long March 4B space rocket.

The launch took place on May 10, 1999, 1:33 a.m. from Launch Complex 7.

For more information about the launch, click the button.

Launch to space Long March 4B | Feng Yun 1C
Long March 4B | Feng Yun 1C

Agency: N/A

Status: Launch Successful

Launch date: May 10, 1999, 1:33 a.m. UTC

Rocket: Long March 4B

Launch pad: Launch Complex 7

Location: Taiyuan Satellite Launch Center, People's Republic of China

...

Latest news about this satellite

There are no fresh news available about this satellite. Check back as we update our databases every day.


Newsletter sign-up

Weekly statistics, charts and insights to help you stay on top of the space industry.